Location: Borovka
(49.7741°N, 14.5280°E)
Time: 06:14:56
(UTC+00:00)

PSLV R/B - Pass Details

Date: 17 November 2025
Orbit: 561 x 589 km, 98.0° (Epoch: 10 December)

Event Time Altitude Azimuth Distance (km) Brightness Sun altitude
Rises 17:46:43 0° 178° (S) 2,760 6.9 -24.1°
Reaches altitude 10° 17:48:54 10° 184° (S) 1,863 6.1 -24.4°
Maximum altitude 17:52:49 49° 260° (W) 736 4.2 -25.1°
Drops below altitude 10° 17:56:45 10° 336° (NNW) 1,868 6.3 -25.7°
Sets 17:58:57 0° 342° (NNW) 2,767 7.1 -26.1°
